Regional Weather Roundup
Issued by NWS

Home | Current Version | Previous Version | Graphics & Text | Print | Product List | Glossary On
Versions: 1 2 3 4 5 6 7 8 9 10 11 12 13 14 15 16 17 18 19 20 21 22 23 24 25 26 27 28 29 30 31 32 33 34 35 36 37 38 39 40 41 42 43 44 45 46 47 48 49 50
000
ASUS43 KFSD 192010
RWRSD

WEATHER ROUNDUP FOR SOUTH DAKOTA
NATIONAL WEATHER SERVICE SIOUX FALLS SD
300 PM CDT SUN OCT 19 2014

NOTE: "FAIR" INDICATES FEW OR NO CLOUDS BELOW 12,000 FEET WITH NO
SIGNIFICANT WEATHER AND/OR OBSTRUCTIONS TO VISIBILITY.


SDZ001>005-009-010-012>017-192100-
NORTHWEST AND NORTH CENTRAL SOUTH DAKOTA

CITY           SKY/WX    TMP DP  RH WIND       PRES   REMARKS
BUFFALO          N/A     70  37  29 NW14G25   29.96F
FAITH            N/A     73  37  27 NW21      29.98F
MOBRIDGE       SUNNY     77  41  27 NW16      29.90F
$$

SDZ012>016-024>037-041>051-057-063-072>074-192100-
SOUTHWEST AND SOUTH CENTRAL SOUTH DAKOTA

CITY           SKY/WX    TMP DP  RH WIND       PRES   REMARKS
RAPID CTY ARPT SUNNY     73  40  30 NE6       30.03F
PIERRE         SUNNY     76  42  29 NW15      29.93F
CUSTER         SUNNY     68  32  26 SW10G20   30.12F
ELLSWORTH AFB  SUNNY     72  40  32 N7        30.03F
PHILIP         SUNNY     77  39  25 NW12      29.97F
PINE RIDGE     SUNNY     72  39  30 CALM      30.04F
SPEARFISH      FAIR      68  41  37 NW6       30.07F HAZE
WINNER         FAIR      78  38  23 N14       29.96F
$$

SDZ004>011-016>023-039-040-192100-
NORTHEAST SOUTH DAKOTA

CITY           SKY/WX    TMP DP  RH WIND       PRES   REMARKS
ABERDEEN       SUNNY     76  39  26 N20       29.87F
WATERTOWN      SUNNY     70  40  33 NW15      29.87S
SISSETON         N/A     74  40  29 N21       29.82F
$$

SDZ017-020-022-023-036>040-048>070-192100-
SOUTHEAST SOUTH DAKOTA

CITY           SKY/WX    TMP DP  RH WIND       PRES   REMARKS
SIOUX FALLS    SUNNY     73  45  36 W12       29.88F
HURON          SUNNY     77  37  23 NW20      29.88F
CHAMBERLAIN    SUNNY     76  41  28 NW16      29.93S
MITCHELL       SUNNY     78  41  26 NW16      29.89F
YANKTON        SUNNY     72  46  40 W8        29.90F
$$

ABBREVIATIONS USED IN REMARKS
   TC - TEMPERATURE IN CELSIUS
  WCI - WIND CHILL INDEX
   HX - HEAT INDEX
  VSB - VISIBILITY




USA.gov is the U.S. government's official web portal to all federal, state and local government web resources and services.